Location: Bayshore Village Mobile Home Park
(26.6945°N, 81.8642°W)
Time: 23:49:01
(UTC+00:00)

Genesis I - Pass Details

Date: 17 June 2021
Orbit: 476 x 543 km, 64.5° (Epoch: 05 August)

Event Time Altitude Azimuth Distance (km) Brightness Sun altitude
Rises 00:42:49 0° 189° (S) 2,527 6.5 -4.8°
Reaches altitude 10° 00:45:02 10° 180° (S) 1,660 5.5 -5.2°
Maximum altitude 00:48:27 36° 112° (ESE) 786 3.6 -5.9°
Drops below altitude 10° 00:51:58 10° 45° (NE) 1,702 5.7 -6.6°
Sets 00:54:15 0° 37° (NE) 2,601 6.7 -7.0°
